Welcome to our new website - Welkom op onze vernieuwde website - Bienvenue sur notre nouveau site web - Willkommen auf unserer neuen Website
Check our progress frequently. Prüfen Sie unsere Fortschritte regelmäßig. Consultez notre progression fréquemment. Komt u straks nog eens terug

Bezoek ook deze websites:

Template documentation
and downloads

And another site



Het weer levert geen direct gevaar op.    Er zijn geen waarschuwingen afgegeven.

Select another period ( hide this area )

Eenheden Periode Custom range Directly to
Metrisch Engels Beide
Dagelijkse Wekelijkse Maandelijkse Jaarlijkse
use both date-selectors for a custom range
previous Dag
With this date

WeatherUnderground graphs for this period ( click here )


Dagelijkse Samenvatting Woensdag 18 mei 2022
Tijd Temp. ( °C ) Dew pt. ( °C ) Wind ( km/h ) van Windvlaag ( km/h ) Luchtdruk ( hPa ) Humid.( % ) Rainrate ( cm )
Hoog28,8 18,5 2,0 WNW ( 2/4 ) 3,0 1020,3 91 -
Gemiddeld18,6 14,5 0,0 Kalm #164/166 0,2 1019,3 78 -
Laag12,9 11,1 -   0,0 1018,6 53 -
Dagelijkse Tabular details for Woensdag 18 mei 2022
Tijd Temp. ( °C ) Dew pt. ( °C ) Wind ( km/h ) van Windvlaag ( km/h ) Luchtdruk ( hPa ) Humid.( % ) Rainrate ( cm )
00:04 17,9 14,4   Kalm   1018,6 80 -
00:09 17,8 14,3   Kalm   1018,6 80 -
00:14 17,8 14,4   Kalm   1018,6 81 -
00:19 17,7 14,4   Kalm   1018,6 81 -
00:24 17,6 14,3   Kalm   1018,6 81 -
00:29 17,5 14,2   Kalm   1018,6 81 -
00:34 17,4 14,1   Kalm   1018,6 81 -
00:39 17,3 14,0   Kalm   1018,6 81 -
00:44 17,2 14,1   Kalm   1018,6 82 -
00:49 17,1 14,0   Kalm   1018,6 82 -
00:54 17,1 14,0   Kalm   1018,6 82 -
00:59 17,0 13,9   Kalm   1018,6 82 -
01:04 16,9 13,8   Kalm   1018,6 82 -
01:09 16,8 13,9   Kalm   1018,6 83 -
01:14 16,8 13,9   Kalm   1018,6 83 -
01:19 16,7 13,9   Kalm   1018,6 83 -
01:24 16,7 13,8   Kalm   1018,6 83 -
01:29 16,6 13,8   Kalm   1018,6 84 -
01:34 16,5 13,9   Kalm   1018,6 84 -
01:39 16,4 13,7   Kalm   1018,6 84 -
01:44 16,3 13,6   Kalm   1018,6 84 -
01:49 16,2 13,6   Kalm   1018,6 85 -
01:54 16,1 13,6   Kalm   1018,6 85 -
01:59 16,0 13,5   Kalm   1018,6 85 -
02:04 15,9 13,4   Kalm   1018,6 85 -
02:09 15,8 13,3   Kalm   1018,6 85 -
02:14 15,7 13,2   Kalm   1018,6 85 -
02:19 15,6 13,3   Kalm   1018,6 85 -
02:24 15,5 13,0   Kalm   1018,6 85 -
02:29 15,4 12,9   Kalm   1018,6 85 -
02:34 15,3 13,0   Kalm   1018,6 86 -
02:39 15,2 12,9   Kalm   1018,6 86 -
02:44 15,2 12,9   Kalm   1018,6 86 -
02:49 15,1 12,8   Kalm   1018,6 86 -
02:54 14,9 12,6   Kalm   1018,6 86 -
02:59 14,9 12,6   Kalm   1018,6 86 -
03:04 14,8 12,5   Kalm   1018,6 86 -
03:09 14,8 12,5   Kalm   1018,6 86 -
03:14 14,7 12,4   Kalm   1018,6 86 -
03:19 14,7 12,6   Kalm   1018,6 87 -
03:24 14,6 12,5   Kalm   1018,6 87 -
03:29 14,6 12,5   Kalm   1018,6 87 -
03:34 14,5 12,4   Kalm   1018,6 87 -
03:39 14,4 12,3   Kalm   1019,0 87 -
03:44 14,4 12,3   Kalm   1019,0 87 -
03:49 14,3 12,2   Kalm   1018,6 87 -
03:54 14,3 12,2   Kalm   1018,6 87 -
04:04 14,2 12,1   Kalm   1018,6 87 -
04:09 14,1 12,0   Kalm   1018,6 87 -
04:14 14,0 11,9   Kalm   1018,6 87 -
04:19 13,9 11,9   Kalm   1018,6 88 -
04:24 13,9 11,9   Kalm   1018,6 88 -
04:29 13,9 11,9   Kalm   1018,6 88 -
04:34 13,9 11,9   Kalm   1018,6 88 -
04:39 13,9 11,9   Kalm   1018,6 88 -
04:44 13,8 11,8   Kalm   1018,6 88 -
04:49 13,8 11,8   Kalm   1018,6 88 -
04:54 13,8 12,0   Kalm   1018,6 89 -
04:59 13,8 12,0   Kalm   1018,6 89 -
05:04 13,7 12,2   Kalm   1018,6 89 -
05:09 13,7 11,9   Kalm   1018,6 89 -
05:14 13,6 11,6   Kalm   1018,6 88 -
05:19 13,6 11,8   Kalm   1018,6 89 -
05:24 13,5 11,7   Kalm   1019,0 89 -
05:29 13,4 11,6   Kalm   1019,0 89 -
05:34 13,4 11,7   Kalm   1019,0 89 -
05:39 13,3 11,5   Kalm   1019,0 89 -
05:44 13,2 11,4   Kalm   1019,0 89 -
05:49 13,2 11,7   Kalm   1019,0 89 -
05:54 13,1 11,3   Kalm   1019,0 89 -
05:59 13,1 11,3   Kalm   1019,0 89 -
06:04 13,0 11,2   Kalm   1019,0 89 -
06:09 12,9 11,1   Kalm   1019,0 89 -
06:14 12,9 11,1   Kalm   1019,0 89 -
06:19 12,9 11,3   Kalm   1019,0 90 -
06:24 12,9 11,3   Kalm   1019,3 90 -
06:29 12,9 11,3   Kalm   1019,3 90 -
06:34 12,9 11,3   Kalm   1019,3 90 -
06:39 13,1 11,7   Kalm   1019,3 91 -
06:44 13,4 12,0   Kalm   1019,3 91 -
06:49 13,6 12,2   Kalm   1019,3 91 -
06:54 13,8 12,4   Kalm   1019,3 91 -
06:59 13,9 12,4   Kalm   1019,3 91 -
07:04 14,0 12,6   Kalm   1019,3 91 -
07:09 14,3 12,9   Kalm   1019,3 91 -
07:14 14,6 13,1   Kalm   1019,3 91 -
07:19 14,8 13,3   Kalm   1019,3 91 -
07:24 15,1 13,6   Kalm   1019,6 91 -
07:29 15,4 13,9   Kalm   1019,6 91 -
07:34 15,6 14,1   Kalm   1019,6 91 -
07:39 15,9 14,4   Kalm   1019,6 91 -
07:44 16,2 14,7   Kalm   1019,6 91 -
07:49 16,4 14,8   Kalm   1019,6 91 -
07:54 16,7 15,1   Kalm   1019,6 90 -
07:59 16,9 15,1   Kalm   1019,6 90 -
08:04 17,2 15,4   Kalm   1019,6 89 -
08:09 17,4 15,5   Kalm   1019,6 89 -
08:14 17,7 15,5   Kalm   1019,6 88 -
08:19 17,9 15,6   Kalm   1019,6 87 -
08:24 18,2 15,6   Kalm   1019,6 86 -
08:29 18,4 15,7   Kalm   1019,6 85 -
08:34 18,7 15,8   Kalm   1019,6 84 -
08:39 18,8 15,8   Kalm   1019,6 83 -
08:44 19,1 15,8   Kalm   1019,6 82 -
08:49 19,3 16,0   Kalm   1019,6 81 -
08:54 19,4 16,1   Kalm   1019,6 81 -
08:59 19,7 16,1   Kalm   1019,6 80 -
09:04 19,9 16,0   Kalm   1019,6 79 -
09:09 20,1 16,1   Kalm   1019,6 78 -
09:14 20,3 16,1   Kalm   1019,6 77 -
09:19 20,6 16,4   Kalm   1019,6 77 -
09:24 20,8 16,3   Kalm   1019,6 76 -
09:29 21,0 16,0   Kalm   1019,6 74 -
09:34 21,2 16,1   Kalm   1020,0 73 -
09:39 21,5 15,9   Kalm   1019,6 71 -
09:44 21,8 16,1   Kalm   1019,6 70 -
09:49 22,0 16,4   Kalm   1019,6 71 -
09:54 22,2 16,2   Kalm   1020,0 69 -
09:59 22,4 16,3   Kalm   1020,0 69 -
10:04 22,6 16,4   Kalm   1020,0 68 -
10:09 22,8 16,4   Kalm   1020,0 67 -
10:14 22,9 16,4   Kalm   1020,0 67 -
10:19 23,3 16,5   Kalm   1020,0 67 -
10:24 23,5 17,0   Kalm   1020,0 67 -
10:29 23,7 17,2   Kalm   1020,0 67 -
10:34 23,9 16,9   Kalm   1020,0 65 -
10:39 24,2 17,0   Kalm   1020,0 65 -
10:44 24,4 17,1   Kalm   1020,0 64 -
10:49 24,6 17,3   Kalm   1020,0 64 -
10:54 24,6 17,3   Kalm   1020,0 64 -
10:59 24,6 16,8   Kalm   1020,3 62 -
11:04 24,5 17,0   Kalm   1020,3 63 -
11:09 24,4 16,6   Kalm   1020,3 62 -
11:14 24,3 16,7   Kalm   1020,3 63 -
11:19 24,2 16,7   Kalm   1020,3 63 -
11:24 24,1 16,6   Kalm   1020,3 63 -
11:29 24,1 16,6   Kalm   1020,0 63 -
11:34 24,2 17,0   Kalm   1020,3 64 -
11:39 24,3 16,7   Kalm   1020,3 63 -
11:44 24,3 16,8   Kalm   1020,3 63 -
11:49 24,5 16,7 2,0 WNW 2,0 1020,0 62 -
11:54 24,6 16,6   Kalm   1020,0 61 -
11:59 24,8 16,5   Kalm   1020,0 60 -
12:04 25,0 17,2   Kalm   1020,3 62 -
12:09 25,2 17,0   Kalm   1020,3 61 -
12:14 25,3 17,4   Kalm   1020,3 62 -
12:19 25,4 16,7   Kalm   1020,3 59 -
12:24 25,6 17,3   Kalm   1020,3 60 -
12:29 25,7 17,0   Kalm 2,0 1020,3 59 -
12:34 25,8 16,9   Kalm 2,0 1020,3 58 -
12:39 26,0 16,8   Kalm   1020,3 57 -
12:44 26,2 17,0   Kalm   1020,3 57 -
12:49 26,3 16,8   Kalm   1020,0 56 -
12:54 26,3 16,5   Kalm   1020,0 55 -
12:59 26,4 17,4   Kalm 2,0 1020,0 58 -
13:04 26,6 17,3   Kalm 2,0 1020,0 57 -
13:09 26,7 17,5   Kalm   1020,0 57 -
13:14 26,7 17,2   Kalm   1020,0 56 -
13:19 26,9 17,6   Kalm   1020,0 57 -
13:24 27,1 17,8   Kalm 3,0 1019,6 57 -
13:29 27,4 17,8   Kalm 3,0 1019,6 56 -
13:34 27,7 18,0   Kalm 3,0 1019,6 56 -
13:39 27,9 18,3   Kalm 3,0 1019,6 56 -
13:44 28,2 18,5   Kalm   1019,6 56 -
13:54 28,7 18,5   Kalm 2,0 1019,6 54 -
13:59 28,8 18,3 2,0 ZZW 2,0 1019,6 53 -
Dagelijkse Samenvatting Woensdag 18 mei 2022
Tijd Temp. ( °C ) Dew pt. ( °C ) Wind ( km/h ) van Windvlaag ( km/h ) Luchtdruk ( hPa ) Humid.( % ) Rainrate ( cm )
Hoog28,8 18,5 2,0 WNW ( 2/4 ) 3,0 1020,3 91 -
Gemiddeld18,6 14,5 0,0 Kalm #164/166 0,2 1019,3 78 -
Laag12,9 11,1 -   0,0 1018,6 53 -
Dagelijkse Tabular details for Woensdag 18 mei 2022
Tijd Temp. ( °C ) Dew pt. ( °C ) Wind ( km/h ) van Windvlaag ( km/h ) Luchtdruk ( hPa ) Humid.( % ) Rainrate ( cm )
00:04 17,9 14,4   Kalm   1018,6 80 -
00:09 17,8 14,3   Kalm   1018,6 80 -
00:14 17,8 14,4   Kalm   1018,6 81 -
00:19 17,7 14,4   Kalm   1018,6 81 -
00:24 17,6 14,3   Kalm   1018,6 81 -
00:29 17,5 14,2   Kalm   1018,6 81 -
00:34 17,4 14,1   Kalm   1018,6 81 -
00:39 17,3 14,0   Kalm   1018,6 81 -
00:44 17,2 14,1   Kalm   1018,6 82 -
00:49 17,1 14,0   Kalm   1018,6 82 -
00:54 17,1 14,0   Kalm   1018,6 82 -
00:59 17,0 13,9   Kalm   1018,6 82 -
01:04 16,9 13,8   Kalm   1018,6 82 -
01:09 16,8 13,9   Kalm   1018,6 83 -
01:14 16,8 13,9   Kalm   1018,6 83 -
01:19 16,7 13,9   Kalm   1018,6 83 -
01:24 16,7 13,8   Kalm   1018,6 83 -
01:29 16,6 13,8   Kalm   1018,6 84 -
01:34 16,5 13,9   Kalm   1018,6 84 -
01:39 16,4 13,7   Kalm   1018,6 84 -
01:44 16,3 13,6   Kalm   1018,6 84 -
01:49 16,2 13,6   Kalm   1018,6 85 -
01:54 16,1 13,6   Kalm   1018,6 85 -
01:59 16,0 13,5   Kalm   1018,6 85 -
02:04 15,9 13,4   Kalm   1018,6 85 -
02:09 15,8 13,3   Kalm   1018,6 85 -
02:14 15,7 13,2   Kalm   1018,6 85 -
02:19 15,6 13,3   Kalm   1018,6 85 -
02:24 15,5 13,0   Kalm   1018,6 85 -
02:29 15,4 12,9   Kalm   1018,6 85 -
02:34 15,3 13,0   Kalm   1018,6 86 -
02:39 15,2 12,9   Kalm   1018,6 86 -
02:44 15,2 12,9   Kalm   1018,6 86 -
02:49 15,1 12,8   Kalm   1018,6 86 -
02:54 14,9 12,6   Kalm   1018,6 86 -
02:59 14,9 12,6   Kalm   1018,6 86 -
03:04 14,8 12,5   Kalm   1018,6 86 -
03:09 14,8 12,5   Kalm   1018,6 86 -
03:14 14,7 12,4   Kalm   1018,6 86 -
03:19 14,7 12,6   Kalm   1018,6 87 -
03:24 14,6 12,5   Kalm   1018,6 87 -
03:29 14,6 12,5   Kalm   1018,6 87 -
03:34 14,5 12,4   Kalm   1018,6 87 -
03:39 14,4 12,3   Kalm   1019,0 87 -
03:44 14,4 12,3   Kalm   1019,0 87 -
03:49 14,3 12,2   Kalm   1018,6 87 -
03:54 14,3 12,2   Kalm   1018,6 87 -
04:04 14,2 12,1   Kalm   1018,6 87 -
04:09 14,1 12,0   Kalm   1018,6 87 -
04:14 14,0 11,9   Kalm   1018,6 87 -
04:19 13,9 11,9   Kalm   1018,6 88 -
04:24 13,9 11,9   Kalm   1018,6 88 -
04:29 13,9 11,9   Kalm   1018,6 88 -
04:34 13,9 11,9   Kalm   1018,6 88 -
04:39 13,9 11,9   Kalm   1018,6 88 -
04:44 13,8 11,8   Kalm   1018,6 88 -
04:49 13,8 11,8   Kalm   1018,6 88 -
04:54 13,8 12,0   Kalm   1018,6 89 -
04:59 13,8 12,0   Kalm   1018,6 89 -
05:04 13,7 12,2   Kalm   1018,6 89 -
05:09 13,7 11,9   Kalm   1018,6 89 -
05:14 13,6 11,6   Kalm   1018,6 88 -
05:19 13,6 11,8   Kalm   1018,6 89 -
05:24 13,5 11,7   Kalm   1019,0 89 -
05:29 13,4 11,6   Kalm   1019,0 89 -
05:34 13,4 11,7   Kalm   1019,0 89 -
05:39 13,3 11,5   Kalm   1019,0 89 -
05:44 13,2 11,4   Kalm   1019,0 89 -
05:49 13,2 11,7   Kalm   1019,0 89 -
05:54 13,1 11,3   Kalm   1019,0 89 -
05:59 13,1 11,3   Kalm   1019,0 89 -
06:04 13,0 11,2   Kalm   1019,0 89 -
06:09 12,9 11,1   Kalm   1019,0 89 -
06:14 12,9 11,1   Kalm   1019,0 89 -
06:19 12,9 11,3   Kalm   1019,0 90 -
06:24 12,9 11,3   Kalm   1019,3 90 -
06:29 12,9 11,3   Kalm   1019,3 90 -
06:34 12,9 11,3   Kalm   1019,3 90 -
06:39 13,1 11,7   Kalm   1019,3 91 -
06:44 13,4 12,0   Kalm   1019,3 91 -
06:49 13,6 12,2   Kalm   1019,3 91 -
06:54 13,8 12,4   Kalm   1019,3 91 -
06:59 13,9 12,4   Kalm   1019,3 91 -
07:04 14,0 12,6   Kalm   1019,3 91 -
07:09 14,3 12,9   Kalm   1019,3 91 -
07:14 14,6 13,1   Kalm   1019,3 91 -
07:19 14,8 13,3   Kalm   1019,3 91 -
07:24 15,1 13,6   Kalm   1019,6 91 -
07:29 15,4 13,9   Kalm   1019,6 91 -
07:34 15,6 14,1   Kalm   1019,6 91 -
07:39 15,9 14,4   Kalm   1019,6 91 -
07:44 16,2 14,7   Kalm   1019,6 91 -
07:49 16,4 14,8   Kalm   1019,6 91 -
07:54 16,7 15,1   Kalm   1019,6 90 -
07:59 16,9 15,1   Kalm   1019,6 90 -
08:04 17,2 15,4   Kalm   1019,6 89 -
08:09 17,4 15,5   Kalm   1019,6 89 -
08:14 17,7 15,5   Kalm   1019,6 88 -
08:19 17,9 15,6   Kalm   1019,6 87 -
08:24 18,2 15,6   Kalm   1019,6 86 -
08:29 18,4 15,7   Kalm   1019,6 85 -
08:34 18,7 15,8   Kalm   1019,6 84 -
08:39 18,8 15,8   Kalm   1019,6 83 -
08:44 19,1 15,8   Kalm   1019,6 82 -
08:49 19,3 16,0   Kalm   1019,6 81 -
08:54 19,4 16,1   Kalm   1019,6 81 -
08:59 19,7 16,1   Kalm   1019,6 80 -
09:04 19,9 16,0   Kalm   1019,6 79 -
09:09 20,1 16,1   Kalm   1019,6 78 -
09:14 20,3 16,1   Kalm   1019,6 77 -
09:19 20,6 16,4   Kalm   1019,6 77 -
09:24 20,8 16,3   Kalm   1019,6 76 -
09:29 21,0 16,0   Kalm   1019,6 74 -
09:34 21,2 16,1   Kalm   1020,0 73 -
09:39 21,5 15,9   Kalm   1019,6 71 -
09:44 21,8 16,1   Kalm   1019,6 70 -
09:49 22,0 16,4   Kalm   1019,6 71 -
09:54 22,2 16,2   Kalm   1020,0 69 -
09:59 22,4 16,3   Kalm   1020,0 69 -
10:04 22,6 16,4   Kalm   1020,0 68 -
10:09 22,8 16,4   Kalm   1020,0 67 -
10:14 22,9 16,4   Kalm   1020,0 67 -
10:19 23,3 16,5   Kalm   1020,0 67 -
10:24 23,5 17,0   Kalm   1020,0 67 -
10:29 23,7 17,2   Kalm   1020,0 67 -
10:34 23,9 16,9   Kalm   1020,0 65 -
10:39 24,2 17,0   Kalm   1020,0 65 -
10:44 24,4 17,1   Kalm   1020,0 64 -
10:49 24,6 17,3   Kalm   1020,0 64 -
10:54 24,6 17,3   Kalm   1020,0 64 -
10:59 24,6 16,8   Kalm   1020,3 62 -
11:04 24,5 17,0   Kalm   1020,3 63 -
11:09 24,4 16,6   Kalm   1020,3 62 -
11:14 24,3 16,7   Kalm   1020,3 63 -
11:19 24,2 16,7   Kalm   1020,3 63 -
11:24 24,1 16,6   Kalm   1020,3 63 -
11:29 24,1 16,6   Kalm   1020,0 63 -
11:34 24,2 17,0   Kalm   1020,3 64 -
11:39 24,3 16,7   Kalm   1020,3 63 -
11:44 24,3 16,8   Kalm   1020,3 63 -
11:49 24,5 16,7 2,0 WNW 2,0 1020,0 62 -
11:54 24,6 16,6   Kalm   1020,0 61 -
11:59 24,8 16,5   Kalm   1020,0 60 -
12:04 25,0 17,2   Kalm   1020,3 62 -
12:09 25,2 17,0   Kalm   1020,3 61 -
12:14 25,3 17,4   Kalm   1020,3 62 -
12:19 25,4 16,7   Kalm   1020,3 59 -
12:24 25,6 17,3   Kalm   1020,3 60 -
12:29 25,7 17,0   Kalm 2,0 1020,3 59 -
12:34 25,8 16,9   Kalm 2,0 1020,3 58 -
12:39 26,0 16,8   Kalm   1020,3 57 -
12:44 26,2 17,0   Kalm   1020,3 57 -
12:49 26,3 16,8   Kalm   1020,0 56 -
12:54 26,3 16,5   Kalm   1020,0 55 -
12:59 26,4 17,4   Kalm 2,0 1020,0 58 -
13:04 26,6 17,3   Kalm 2,0 1020,0 57 -
13:09 26,7 17,5   Kalm   1020,0 57 -
13:14 26,7 17,2   Kalm   1020,0 56 -
13:19 26,9 17,6   Kalm   1020,0 57 -
13:24 27,1 17,8   Kalm 3,0 1019,6 57 -
13:29 27,4 17,8   Kalm 3,0 1019,6 56 -
13:34 27,7 18,0   Kalm 3,0 1019,6 56 -
13:39 27,9 18,3   Kalm 3,0 1019,6 56 -
13:44 28,2 18,5   Kalm   1019,6 56 -
13:54 28,7 18,5   Kalm 2,0 1019,6 54 -
13:59 28,8 18,3 2,0 ZZW 2,0 1019,6 53 -

Download your copy of this data-set  here

Our weather-data as stored at Weather Underground. Script ontwikkeld door Jim McMurry. Aangepast voor de template door Leuven-Template.eu

U vindt ons ook hier:

Het Weer Aktueel

European Weather Network

Weather Underground

Benelux Weer Netwerk

Apparatuur in gebruik:

Weerstation
Davis VP2

Weerprogramma
Meteobridge

Weercomputer
Meteobridge Pro+

Webleverancier
vip.nl

Davis VP2

Meteobridge

Meteobridge Pro+

vip.nl